Regional Weather Roundup
Issued by NWS

Home | Current Version | Previous Version | Text Only | Print | Product List | Glossary On
Versions: 1 2 3 4 5 6 7 8 9 10 11 12 13 14 15 16 17 18 19 20 21 22 23 24 25 26 27 28 29 30 31 32 33 34 35 36 37 38 39 40 41 42 43 44 45 46 47 48 49 50
000
ASUS42 KFFC 252110
RWRGA
WEATHER ROUNDUP FOR GEORGIA
NATIONAL WEATHER SERVICE PEACHTREE CITY GA
500 PM EDT SAT MAR 25 2017

NOTE: "FAIR" INDICATES FEW OR NO CLOUDS BELOW 12,000 FEET WITH NO
SIGNIFICANT WEATHER AND/OR OBSTRUCTIONS TO VISIBILITY.

* = USE WITH CAUTION. THE STATIONS MARKED WITH AN ASTERISK MAY NOT
REPORT WEATHER SUCH AS PRECIPITATION, FOG, OR THUNDER AND ARE NOT
QUALITY CONTROLLED BY NWS.

THE REMARK "TC" DENOTES TEMPERATURE READING IN DEGREES CELSIUS.

GAZ001>058-252200-
NORTH GEORGIA

CITY           SKY/WX    TMP DP  RH WIND       PRES   REMARKS
ATLANTA        PTSUNNY   74  49  41 S14G21    30.12F
ATHENS         PTSUNNY   73  51  46 VRB6      30.15F
CHAMBLEE       CLOUDY    72  49  44 VRB7G16   30.12F
PEACHTREE CITY CLOUDY    74  52  46 SE14      30.12F
ROME           MOSUNNY   77  49  37 SE12G21   30.06F
WEST ATLANTA   PTSUNNY   74  49  41 SE14G22   30.11F
GAINESVILLE    CLOUDY    71  49  45 SE8G16    30.16F
CARTERSVILLE   PTSUNNY   75  50  41 S8G24     30.09F


CITY           SKY/WX    TMP DP  RH WIND       PRES   REMARKS
DALTON*        MOSUNNY   77  52  41 SE10      30.07F
LAWRENCEVILLE* PTSUNNY   73  52  46 SE12      30.15F
MARIETTA       PTSUNNY   74  50  42 SE10G18   30.11F
KENNESAW*      PTSUNNY   73  52  46 S6G20     30.09F
CANTON*        PTSUNNY   73  37  27 SE10G16   30.13F
$$

GAZ059>098-102>109-252200-
CENTRAL GEORGIA

CITY           SKY/WX    TMP DP  RH WIND       PRES   REMARKS
AUGUSTA-BUSH   MOSUNNY   80  51  36 S10       30.15F
AUGUSTA-DANIEL PTSUNNY   77  48  35 S10       30.17F
COLUMBUS       MOSUNNY   80  51  36 S9        30.08F
MACON          PTSUNNY   77  51  40 SE12G20   30.13F
ROBINS AFB     MOSUNNY   79  51  38 S14       30.11F


CITY           SKY/WX    TMP DP  RH WIND       PRES   REMARKS
LAGRANGE*      CLOUDY    79  57  46 S10G16    30.09F
SYLVANIA*      MOSUNNY  N/A N/A N/A SE8       30.19F
MILLEDGEVILLE* MOSUNNY   77  55  47 CALM      30.13F
$$

GAZ099>101-110>166-252200-
SOUTH GEORGIA

CITY           SKY/WX    TMP DP  RH WIND       PRES   REMARKS
SAVANNAH       PTSUNNY   73  52  47 SE15      30.21F
VALDOSTA       PTSUNNY   79  52  38 S7        30.13F
ALMA           PTSUNNY   77  56  48 SE7       30.15F
ST SIMONS      SUNNY     73  58  59 E12       30.19F
FT STEWART     MOSUNNY   75  53  46 SE13      30.17F
ALBANY         MOSUNNY   81  52  36 S9        30.12F
HUNTER AFB     MOSUNNY   74  57  54 S10       30.19F
MOODY AFB      PTSUNNY   79  51  37 S8        30.12F
BRUNSWICK      SUNNY     75  59  57 E9G18     30.20F


CITY           SKY/WX    TMP DP  RH WIND       PRES   REMARKS
BAINBRIDGE*    MOSUNNY   81  52  36 SE9G17    30.10F
MOULTRIE*      MOSUNNY   79  52  38 SE7       30.13F
VIDALIA*       PTSUNNY   77  54  44 SE10      30.16F
WAYCROSS*      PTSUNNY   80  61  50 SE8       30.16F
DOUGLAS*       PTSUNNY   79  50  36 SE8G17    30.16F
$$




USA.gov is the U.S. government's official web portal to all federal, state and local government web resources and services.